Location: *
(32.8140°S, 174.6161°E)
Time: 21:14:53
(UTC+00:00)

ARIANE 5 R/B - Pass Details

Date: 10 December 2019
Orbit: 749 x 794 km, 98.6° (Epoch: 18 January)

Event Time Altitude Azimuth Distance (km) Brightness Sun altitude
Exits shadow 15:34:33 15° 265° (W) 2,042 4.3 -16.6°
Drops below altitude 10° 15:36:46 10° 240° (WSW) 2,346 4.8 -16.3°
Sets 15:40:10 0° 216° (SW) 3,274 5.8 -15.7°
